Tracking 33750 objects as of 15-Apr-2026
HD Live streaming from Space Station
objects crossing your sky now

GALAXY 10R

Track GALAXY 10R now!
GALAXY 10R is classified as:


NORAD ID: 26056
Int'l Code: 2000-002A
Perigee: 35,960.3 km
Apogee: 35,982.1 km
Inclination: 12.1 °
Period: 1,445.2 minutes
Semi major axis: 42342 km
RCS: 16.229 m2 (large)
Launch date: January 25, 2000
Source: United States (US)
Launch site: FRENCH GUIANA (FRGUI)

Digital and voice communications; 24 C-band< 24 Ku-band; North America.
Your satellite tracking list
Your tracking list is empty




NASA's NSSDC Master Catalog

Two Line Element Set (TLE):
1 26056U 00002A   26104.49975597  .00000065  00000-0  00000-0 0  9990
2 26056  12.0753  31.6950 0002570 190.0676   2.3699  0.99642068 95698
Source of the keplerian elements: AFSPC